Chignik, AK

12:54 PM AKST on November 21, 2017 (GMT -0900)
Chignik

Weather History for PAJC - October, 2011

Change the Weather History Date:

Friday, October 28, 2011

  Actual Average Record
Temperature  
Mean Temperature 38 °F -  
Max Temperature 44 °F 40 °F 55 °F (2016)
Min Temperature 33 °F 34 °F 24 °F (2001)
Degree Days  
Heating Degree Days 26    
Moisture  
Dew Point 33 °F    
Average Humidity 79    
Maximum Humidity 87    
Minimum Humidity 65    
Precipitation  
Precipitation 0.00 in - - ()
Sea Level Pressure  
Sea Level Pressure 29.07 in    
Wind  
Wind Speed 7 mph (ESE)    
Max Wind Speed 20 mph    
Max Gust Speed 30 mph    
Visibility 8 miles    
Events      
Averages and records for this station are not official NWS values.
T = Trace of Precipitation, MM = Missing Value Source: NWS Daily Summary

Daily Weather History Graph

Daily Weather History Graph

Search for Another Location

Airport or City:

Trip Planner

Search our weather history database for the weather conditions in past years. The results will help you decide how hot, cold, wet, or windy it might be!

Date:

Astronomy

Oct. 28, 2011 Rise Set
Actual Time 9:32 AM AKDT 7:00 PM AKDT
Civil Twilight 8:53 AM AKDT 7:40 PM AKDT
Nautical Twilight 8:09 AM AKDT 8:24 PM AKDT
Astronomical Twilight 7:25 AM AKDT 9:07 PM AKDT
Moon 12:40 PM AKDT (10/28) 7:55 PM AKDT (10/28)
Length of Visible Light 10h 46m
Length of Day
9h 27m
Waxing Crescent, 6% of the Moon is Illuminated
Oct 28
Waxing Crescent
Nov 2
First Quarter
Nov 10
Full
Nov 18
Last Quarter
Nov 24
New

Hourly Weather History & Observations

Time (AKDT) Temp. Windchill Dew Point Humidity Pressure Visibility Wind Dir Wind Speed Gust Speed Precip Events Conditions
12:16 AM 35.6 °F - 24.8 °F 65% 29.38 in 10.0 mi Calm Calm - N/A   Partly Cloudy
12:36 AM 35.6 °F 32.8 °F 24.8 °F 65% 29.38 in 10.0 mi SSE 3.5 mph - N/A   Mostly Cloudy
12:56 AM 33.8 °F - 24.8 °F 70% 29.37 in 10.0 mi Calm Calm - N/A   Overcast
1:16 AM 33.8 °F - 24.8 °F 70% 29.36 in 10.0 mi Calm Calm - N/A   Mostly Cloudy
1:36 AM 33.8 °F 30.8 °F 24.8 °F 70% 29.35 in 10.0 mi SSE 3.5 mph - N/A   Scattered Clouds
1:56 AM 33.8 °F 30.8 °F 24.8 °F 70% 29.35 in 10.0 mi SSE 3.5 mph - N/A   Scattered Clouds
2:16 AM 33.8 °F 29.6 °F 24.8 °F 70% 29.34 in 10.0 mi ESE 4.6 mph - N/A   Scattered Clouds
2:36 AM 33.8 °F - 24.8 °F 70% 29.33 in 10.0 mi Calm Calm - N/A   Scattered Clouds
2:56 AM 33.8 °F 30.8 °F 26.6 °F 75% 29.31 in 10.0 mi SE 3.5 mph - N/A   Scattered Clouds
3:16 AM 33.8 °F - 24.8 °F 70% 29.30 in 10.0 mi Calm Calm - N/A   Clear
3:36 AM 33.8 °F 29.6 °F 26.6 °F 75% 29.30 in 10.0 mi South 4.6 mph - N/A   Mostly Cloudy
3:56 AM 33.8 °F - 26.6 °F 75% 29.28 in 10.0 mi Calm Calm - N/A   Overcast
4:16 AM 35.6 °F 31.7 °F 26.6 °F 70% 29.27 in 10.0 mi South 4.6 mph - N/A   Mostly Cloudy
4:36 AM 35.6 °F - 26.6 °F 70% 29.26 in 10.0 mi Calm Calm - N/A   Mostly Cloudy
4:56 AM 35.6 °F 31.7 °F 28.4 °F 75% 29.25 in 10.0 mi ENE 4.6 mph - N/A   Overcast
5:16 AM 35.6 °F 32.8 °F 28.4 °F 75% 29.23 in 10.0 mi South 3.5 mph - N/A   Overcast
5:36 AM 35.6 °F 32.8 °F 28.4 °F 75% 29.22 in 10.0 mi South 3.5 mph - N/A   Overcast
5:56 AM 37.4 °F 31.4 °F 33.8 °F 87% 29.21 in 10.0 mi ESE 8.1 mph - N/A   Overcast
6:16 AM 37.4 °F 32.1 °F 32.0 °F 81% 29.19 in 10.0 mi East 6.9 mph - N/A   Overcast
6:36 AM 37.4 °F 33.8 °F 33.8 °F 87% 29.18 in 7.0 mi South 4.6 mph - N/A   Overcast
6:56 AM 39.2 °F 35.0 °F 33.8 °F 81% 29.17 in 7.0 mi ESE 5.8 mph - N/A   Overcast
7:16 AM 39.2 °F 33.6 °F 33.8 °F 81% 29.16 in 9.0 mi East 8.1 mph - N/A   Overcast
7:36 AM 39.2 °F 32.5 °F 33.8 °F 81% 29.14 in 9.0 mi SE 10.4 mph - N/A   Overcast
7:56 AM 39.2 °F 34.2 °F 33.8 °F 81% 29.13 in 10.0 mi ESE 6.9 mph - N/A   Overcast
8:16 AM 39.2 °F 32.5 °F 35.6 °F 87% 29.12 in 5.0 mi SE 10.4 mph - N/A   Overcast
8:36 AM 41.0 °F 35.2 °F 35.6 °F 81% 29.11 in 10.0 mi East 9.2 mph - N/A   Overcast
8:56 AM 41.0 °F 37.1 °F 35.6 °F 81% 29.10 in 10.0 mi SE 5.8 mph 18.4 mph N/A   Overcast
9:16 AM 41.0 °F 35.8 °F 35.6 °F 81% 29.09 in 10.0 mi SE 8.1 mph 16.1 mph N/A   Overcast
9:36 AM 39.2 °F 33.0 °F 33.8 °F 81% 29.08 in 10.0 mi SE 9.2 mph 16.1 mph N/A   Overcast
9:56 AM 41.0 °F 34.3 °F 35.6 °F 81% 29.07 in 4.0 mi SE 11.5 mph 17.3 mph N/A   Overcast
10:16 AM 41.0 °F 33.9 °F 35.6 °F 81% 29.06 in 8.0 mi ESE 12.7 mph 20.7 mph N/A   Overcast
10:36 AM 41.0 °F 33.5 °F 35.6 °F 81% 29.05 in 8.0 mi ESE 13.8 mph 21.9 mph N/A   Overcast
10:56 AM 41.0 °F 33.1 °F 35.6 °F 81% 29.04 in 5.0 mi SE 15.0 mph 19.6 mph N/A   Overcast
11:16 AM 41.0 °F 35.8 °F 35.6 °F 81% 29.03 in 7.0 mi ESE 8.1 mph 21.9 mph N/A   Overcast
11:36 AM 41.0 °F 32.8 °F 35.6 °F 81% 29.02 in 4.0 mi ESE 16.1 mph 21.9 mph N/A   Overcast
11:56 AM 41.0 °F 34.3 °F 35.6 °F 81% 29.01 in 6.0 mi ESE 11.5 mph 23.0 mph N/A   Overcast
12:16 PM 41.0 °F 32.2 °F 35.6 °F 81% 29.00 in 9.0 mi ESE 18.4 mph 25.3 mph N/A   Overcast
12:36 PM 42.8 °F 36.2 °F 37.4 °F 81% 28.98 in 5.0 mi East 12.7 mph 23.0 mph N/A   Overcast
12:56 PM 42.8 °F 35.4 °F 37.4 °F 81% 28.97 in 7.0 mi East 15.0 mph 26.5 mph N/A   Overcast
1:16 PM 42.8 °F 35.1 °F 37.4 °F 81% 28.96 in 5.0 mi ESE 16.1 mph 26.5 mph N/A   Overcast
1:36 PM 42.8 °F 35.1 °F 37.4 °F 81% 28.94 in 7.0 mi ESE 16.1 mph 21.9 mph N/A   Overcast
2:16 PM 41.0 °F 35.2 °F 35.6 °F 81% 28.93 in 9.0 mi ESE 9.2 mph 18.4 mph N/A   Overcast
2:36 PM 41.0 °F 34.3 °F 35.6 °F 81% 28.91 in 9.0 mi SE 11.5 mph - N/A   Overcast
2:56 PM 39.2 °F 33.0 °F 35.6 °F 87% 28.90 in 8.0 mi ESE 9.2 mph 19.6 mph N/A   Overcast
3:16 PM 41.0 °F 33.5 °F 35.6 °F 81% 28.88 in 5.0 mi East 13.8 mph 20.7 mph N/A   Overcast
3:36 PM 41.0 °F 33.1 °F 37.4 °F 87% 28.86 in 5.0 mi NE 15.0 mph - N/A   Overcast
3:56 PM 42.8 °F 34.3 °F 37.4 °F 81% 28.85 in 4.0 mi ENE 19.6 mph 28.8 mph N/A   Overcast
4:16 PM 42.8 °F 34.3 °F 39.2 °F 87% 28.83 in 2.5 mi NE 19.6 mph 29.9 mph N/A   Overcast
4:36 PM 42.8 °F 34.5 °F 39.2 °F 87% 28.81 in 3.0 mi ENE 18.4 mph 26.5 mph N/A   Overcast
4:56 PM 42.8 °F 35.1 °F 39.2 °F 87% 28.80 in 7.0 mi NE 16.1 mph 26.5 mph N/A   Overcast
5:16 PM 42.8 °F 34.5 °F 39.2 °F 87% 28.78 in 5.0 mi NE 18.4 mph 26.5 mph N/A   Overcast
5:36 PM 44.6 °F 36.9 °F 41.0 °F 87% 28.76 in 2.5 mi ENE 18.4 mph 29.9 mph N/A   Overcast
5:56 PM 44.6 °F 37.2 °F 41.0 °F 87% 28.75 in 10.0 mi East 17.3 mph 27.6 mph N/A   Overcast
6:16 PM 44.6 °F 37.2 °F 39.2 °F 81% 28.74 in 10.0 mi ENE 17.3 mph 25.3 mph N/A   Overcast
6:36 PM 44.6 °F 38.1 °F 39.2 °F 81% 28.74 in 10.0 mi ENE 13.8 mph 20.7 mph N/A   Overcast
6:56 PM 44.6 °F 38.8 °F 39.2 °F 81% 28.75 in 10.0 mi ENE 11.5 mph - N/A   Overcast
7:16 PM 42.8 °F 34.3 °F 39.2 °F 87% 28.75 in 10.0 mi ENE 19.6 mph 25.3 mph N/A   Overcast
7:36 PM 42.8 °F 34.8 °F 39.2 °F 87% 28.75 in 10.0 mi ENE 17.3 mph 23.0 mph N/A   Overcast
7:56 PM 42.8 °F 34.8 °F 39.2 °F 87% 28.75 in 9.0 mi ENE 17.3 mph 24.2 mph N/A   Overcast
8:16 PM 42.8 °F 34.3 °F 39.2 °F 87% 28.74 in 10.0 mi ENE 19.6 mph 27.6 mph N/A   Overcast
8:36 PM 42.8 °F 35.1 °F 39.2 °F 87% 28.75 in 10.0 mi ENE 16.1 mph 23.0 mph N/A   Overcast
9:16 PM 42.8 °F 34.8 °F 39.2 °F 87% 28.76 in 10.0 mi NE 17.3 mph 23.0 mph N/A   Overcast
9:36 PM 42.8 °F 35.8 °F 39.2 °F 87% 28.76 in 10.0 mi NE 13.8 mph 24.2 mph N/A   Overcast
9:56 PM 42.8 °F 35.4 °F 37.4 °F 81% 28.77 in 9.0 mi NE 15.0 mph 23.0 mph N/A   Overcast
10:16 PM 42.8 °F 36.2 °F 37.4 °F 81% 28.77 in 5.0 mi NE 12.7 mph 20.7 mph N/A   Overcast
10:36 PM 42.8 °F 36.2 °F 37.4 °F 81% 28.77 in 5.0 mi NE 12.7 mph - N/A   Overcast
10:56 PM 41.0 °F 35.2 °F 37.4 °F 87% 28.78 in 5.0 mi North 9.2 mph - N/A   Overcast
11:16 PM 41.0 °F 36.4 °F 37.4 °F 87% 28.78 in 5.0 mi North 6.9 mph - N/A   Overcast
11:36 PM 41.0 °F 35.2 °F 35.6 °F 81% 28.79 in 2.5 mi NNW 9.2 mph - N/A   Overcast
11:56 PM 39.2 °F 35.9 °F 35.6 °F 87% 28.80 in 3.0 mi SSW 4.6 mph - N/A   Overcast